VIASAT-1

Last updated on Wed Sep 09 2026 00:02:59 GMT+0000 (Coordinated Universal Time)

1 37843U 11059A 26251.50615039 .00000000 00000+0 00000+0 0 9994 2 37843 0.0256 154.1996 0002284 12.5218 247.9543 1.00268226 48159
UTC large
Height (km)
Speed (km/s)
/
Latitude / Longitude
Inclination (degrees)
Orbital Period (minutes)
Azimuth
Elevation
Range (km)
Doppler Factor

Next 0 passes for location: London (51.5072 / 0.1276)

No passes found over London.
VIASAT-1